sat.trackr.live / text

‹ back to catalog

ONEWEB-0258

NORAD 48976 · 2021-060K

PAYLOAD ACTIVE UNKNOWN

§ Identity

Operator
Country
UK
Launch date
2021-07-01
Launch site
VOSTO
Launch vehicle
Mass (kg)
RCS (m²)

Purposes: comms

External: N2YO · Heavens-Above · Gunter

§ Orbital elements

Epoch: 2026-05-25T05:30:07.643232Z

Period
109.37 min
Inclination
87.9110°
Eccentricity
0.0001934
Mean motion
13.16592643 rev/d
Perigee alt
1,196.3 km
Apogee alt
1,199.2 km
Semi-major
7,575.9 km
B*
1.4986e-4
RAAN
233.3409°
Arg perigee
100.8445°
Mean anomaly
259.2903°
Rev number
23,657

§ Raw data

ONEWEB-02581 48976U 21060K   26145.22925513  .00000070  00000+0  14986-3 0  99972 48976  87.9110 233.3409 0001934 100.8445 259.2903 13.16592643236578

JSON: /api/v1/satellites/48976 · /tle

For live sub-satellite position, see the globe view (requires WebGL).

§ Visibility from observer

Set your observer location to see the next 7 days of passes ≥ 10°. The values pass through the URL so the page stays shareable.

No JS? Fill the form by hand. The geolocation button needs JavaScript.